Location: Borojevi?i
(45.0486°N, 16.2297°E)
Time: 17:50:20
(UTC+00:00)

Meteor 1-20 Rocket - Pass Details

Date: 08 August 2020
Orbit: 818 x 893 km, 81.2° (Epoch: 25 September)

Event Time Altitude Azimuth Distance (km) Brightness Sun altitude
Exits shadow 20:23:07 25° 182° (S) 1,722 5.4 -19.4°
Maximum altitude 20:26:42 79° 98° (E) 909 4.2 -19.8°
Drops below altitude 10° 20:32:34 10° 13° (NNE) 2,572 7.2 -20.5°
Sets 20:35:02 0° 12° (NNE) 3,517 8.0 -20.7°
